Location: Newark
(45.4422°N, 16.2769°E)
Time: 16:46:11
(UTC+00:00)

Vanguard 3 - All Passes

Search period start: 09 December 2019 00:00
Search period end: 19 December 2019 00:00
Orbit: 508 x 3263 km, 33.3° (Epoch: 08 December)

Date Brightness Start Highest point End Pass type
(mag) Time Alt. Az. Time Alt. Az. Time Alt. Az.
09 Dec - 05:20:43 10° SSE 05:24:54 15° SE 05:30:15 10° ESE visible
09 Dec - 07:27:20 10° SW 07:35:36 39° SSE 07:49:06 10° E daylight
09 Dec - 09:37:34 10° WSW 09:48:41 50° S 10:05:58 10° ESE daylight
09 Dec - 11:49:45 10° W 12:03:07 41° SSW 12:20:33 10° SE daylight
09 Dec - 14:05:27 10° W 14:17:11 21° SW 14:29:55 10° S daylight
10 Dec - 06:15:10 10° SSW 06:21:36 27° SSE 06:31:29 10° E daylight
10 Dec - 08:24:11 10° WSW 08:33:28 47° S 08:48:48 10° ESE daylight
10 Dec - 10:35:20 10° W 10:47:16 46° SSW 11:04:43 10° SE daylight
10 Dec - 12:48:48 10° W 13:01:36 30° SSW 13:17:01 10° SSE daylight
11 Dec - 05:04:22 10° S 05:08:16 15° SE 05:13:16 10° ESE visible
11 Dec - 07:11:21 10° SW 07:18:55 39° SSE 07:31:27 10° E daylight
11 Dec - 09:21:32 10° WSW 09:31:45 48° S 09:48:05 10° ESE daylight
11 Dec - 11:33:36 10° W 11:45:52 37° SSW 12:02:25 10° SE daylight
11 Dec - 13:49:46 10° WSW 13:59:46 18° SW 14:10:52 10° S daylight
12 Dec - 05:59:09 10° SSW 06:05:02 27° SSE 06:14:06 10° E daylight
12 Dec - 08:08:15 10° WSW 08:16:45 45° S 08:31:00 10° ESE daylight
12 Dec - 10:19:18 10° WSW 10:30:14 42° SSW 10:46:40 10° SE daylight
12 Dec - 12:32:49 10° W 12:44:18 26° SSW 12:58:28 10° SSE daylight
13 Dec - 04:48:09 10° S 04:51:44 15° SE 04:56:20 10° ESE visible
13 Dec - 06:55:27 10° SW 07:02:21 38° SSE 07:13:51 10° ESE daylight
13 Dec - 09:05:37 10° WSW 09:14:57 45° S 09:30:08 10° ESE daylight
13 Dec - 11:17:37 10° W 11:28:44 33° SSW 11:44:05 10° SSE daylight
13 Dec - 13:34:45 10° WSW 13:42:29 15° SW 13:51:03 10° SSW daylight
14 Dec - 05:43:13 10° SSW 05:48:34 27° SSE 05:56:47 10° E visible
14 Dec - 07:52:24 10° WSW 08:00:09 43° S 08:13:14 10° ESE daylight
14 Dec - 10:03:23 10° WSW 10:13:19 38° SSW 10:28:29 10° SE daylight
14 Dec - 12:17:09 10° WSW 12:27:07 22° SSW 12:39:32 10° S daylight
15 Dec - 04:32:03 10° S 04:35:19 15° SE 04:39:29 10° ESE visible
15 Dec - 06:39:37 10° SW 06:45:54 37° SSE 06:56:19 10° ESE daylight
15 Dec - 08:49:46 10° WSW 08:58:15 41° S 09:12:09 10° SE daylight
15 Dec - 11:01:50 10° WSW 11:11:44 28° SSW 11:25:31 10° SSE daylight
15 Dec - 13:21:27 10° SW 13:25:19 11° SW 13:29:27 10° SSW daylight
16 Dec - 05:27:21 10° SSW 05:32:13 26° SSE 05:39:35 10° ESE visible
16 Dec - 07:36:38 10° WSW 07:43:40 40° S 07:55:29 10° ESE daylight
16 Dec - 09:47:36 10° WSW 09:56:32 33° SSW 10:10:12 10° SE daylight
16 Dec - 12:01:54 10° WSW 12:10:05 18° SSW 12:20:08 10° S daylight
17 Dec - 04:16:01 10° S 04:18:59 15° SE 04:22:43 10° ESE visible
17 Dec - 06:23:52 10° SW 06:29:34 34° SSE 06:38:52 10° ESE daylight
17 Dec - 08:34:02 10° WSW 08:41:41 36° S 08:54:08 10° SE daylight
17 Dec - 10:46:17 10° WSW 10:54:53 24° SSW 11:06:43 10° SSE daylight
18 Dec - 05:11:33 10° SSW 05:15:57 25° SSE 05:22:29 10° ESE visible
18 Dec - 07:20:55 10° WSW 07:27:17 36° S 07:37:47 10° ESE daylight
18 Dec - 09:31:59 10° WSW 09:39:54 29° SSW 09:51:48 10° SSE daylight
18 Dec - 11:47:26 10° WSW 11:53:12 14° SSW 11:59:56 10° S daylight
